Find Starlink 6210

NORAD ID: 56485 Int'l Des: 2023-064 Owner: SPXS Country: US Constellation: starlink operational
LEOCIRCULAR

实时位置

正在加载3D地球...

关于 Starlink 6210

正在加载描述...

即将过境

Passes for default location (London). Set your location on the main map for personalized predictions.

高度历史

Loading altitude history...

两行轨道根数

1 56485U 23064AP 26105.94110279 -.00000890 00000-0 -66811-4 0 9995
2 56485 70.0011 30.3536 0002829 271.4930 88.5905 14.98325297161324
Epoch: Apr 15, 2026 • Age: 9 hours

当前状态

高度 590.9 km
速度 7.56 km/s
星下点 -54.39°S, 35.53°E
发射日期 May 10, 2023
运行时间 2.9 years
类型 internet

技术详情

分类 Payload
质量 305.00 kg
干质量 290.00 kg
总质量 305.00 kg
长度 0.20 m
直径 2.80 m
跨度 9.00 m
形状 Box + pan
制造商 SPXS
平台类型 Starlink
阶段状态 In Orbit
所有者/国家 SPXS/US

Most Searched